Year,Month,Day,Hour,Minute,Value (Times are PST for temperature in C)
2018,09,28,00,00,17.20
2018,09,28,00,01,17.20
2018,09,28,00,02,17.20
2018,09,28,00,03,17.10
2018,09,28,00,04,17.10
2018,09,28,00,05,17.10
2018,09,28,00,06,17.10
2018,09,28,00,07,17.10
2018,09,28,00,08,17.10
2018,09,28,00,09,17.10
2018,09,28,00,10,17.00
2018,09,28,00,11,17.00
2018,09,28,00,12,17.10
2018,09,28,00,13,17.10
2018,09,28,00,14,17.10
2018,09,28,00,15,17.10
2018,09,28,00,16,17.10
2018,09,28,00,17,17.20
2018,09,28,00,18,17.20
2018,09,28,00,19,17.20
2018,09,28,00,20,17.20
2018,09,28,00,21,17.20
2018,09,28,00,22,17.30
2018,09,28,00,23,17.30
2018,09,28,00,24,17.30
2018,09,28,00,25,17.30
2018,09,28,00,26,17.30
2018,09,28,00,27,17.30
2018,09,28,00,28,17.20
2018,09,28,00,29,17.20
2018,09,28,00,30,17.20
2018,09,28,00,31,17.20
2018,09,28,00,32,17.20
2018,09,28,00,33,17.20
2018,09,28,00,34,17.20
2018,09,28,00,35,17.20
2018,09,28,00,36,17.20
2018,09,28,00,37,17.20
2018,09,28,00,38,17.20
2018,09,28,00,39,17.20
2018,09,28,00,40,17.10
2018,09,28,00,41,17.10
2018,09,28,00,42,17.00
2018,09,28,00,43,16.90
2018,09,28,00,44,16.90
2018,09,28,00,45,16.80
2018,09,28,00,46,16.80
2018,09,28,00,47,16.70
2018,09,28,00,48,16.60
2018,09,28,00,49,16.60
2018,09,28,00,50,16.50
2018,09,28,00,51,16.40
2018,09,28,00,52,16.40
2018,09,28,00,53,16.30
2018,09,28,00,54,16.20
2018,09,28,00,55,16.20
2018,09,28,00,56,16.20
2018,09,28,00,57,16.20
2018,09,28,00,58,16.10
2018,09,28,00,59,16.10
2018,09,28,01,00,16.10
2018,09,28,01,01,16.00
2018,09,28,01,02,15.90
2018,09,28,01,03,15.90
2018,09,28,01,04,15.80
2018,09,28,01,05,15.70
2018,09,28,01,06,15.70
2018,09,28,01,07,15.60
2018,09,28,01,08,15.60
2018,09,28,01,09,15.50
2018,09,28,01,10,15.40
2018,09,28,01,11,15.40
2018,09,28,01,12,15.30
2018,09,28,01,13,15.30
2018,09,28,01,14,15.20
2018,09,28,01,15,15.20
2018,09,28,01,16,15.10
2018,09,28,01,17,15.10
2018,09,28,01,18,15.00
2018,09,28,01,19,15.00
2018,09,28,01,20,14.90
2018,09,28,01,21,14.90
2018,09,28,01,22,14.80
2018,09,28,01,23,14.80
2018,09,28,01,24,14.70
2018,09,28,01,25,14.70
2018,09,28,01,26,14.70
2018,09,28,01,27,14.70
2018,09,28,01,28,14.60
2018,09,28,01,29,14.60
2018,09,28,01,30,14.60
2018,09,28,01,31,14.50
2018,09,28,01,32,14.40
2018,09,28,01,33,14.40
2018,09,28,01,34,14.40
2018,09,28,01,35,14.30
2018,09,28,01,36,14.30
2018,09,28,01,37,14.30
2018,09,28,01,38,14.20
2018,09,28,01,39,14.20
2018,09,28,01,40,14.10
2018,09,28,01,41,14.10
2018,09,28,01,42,14.00
2018,09,28,01,43,14.00
2018,09,28,01,44,13.90
2018,09,28,01,45,13.90
2018,09,28,01,46,13.80
2018,09,28,01,47,13.80
2018,09,28,01,48,13.80
2018,09,28,01,49,13.70
2018,09,28,01,50,13.70
2018,09,28,01,51,13.70
2018,09,28,01,52,13.70
2018,09,28,01,53,13.60
2018,09,28,01,54,13.60
2018,09,28,01,55,13.60
2018,09,28,01,56,13.50
2018,09,28,01,57,13.50
2018,09,28,01,58,13.40
2018,09,28,01,59,13.40
2018,09,28,02,00,13.40
2018,09,28,02,01,13.40
2018,09,28,02,02,13.30
2018,09,28,02,03,13.30
2018,09,28,02,04,13.30
2018,09,28,02,05,13.30
2018,09,28,02,06,13.30
2018,09,28,02,07,13.30
2018,09,28,02,08,13.40
2018,09,28,02,09,13.40
2018,09,28,02,10,13.40
2018,09,28,02,11,13.40
2018,09,28,02,12,13.40
2018,09,28,02,13,13.40
2018,09,28,02,14,13.30
2018,09,28,02,15,13.30
2018,09,28,02,16,13.30
2018,09,28,02,17,13.30
2018,09,28,02,18,13.30
2018,09,28,02,19,13.30
2018,09,28,02,20,13.30
2018,09,28,02,21,13.30
2018,09,28,02,22,13.30
2018,09,28,02,23,13.30
2018,09,28,02,24,13.30
2018,09,28,02,25,13.30
2018,09,28,02,26,13.30
2018,09,28,02,27,13.30
2018,09,28,02,28,13.30
2018,09,28,02,29,13.30
2018,09,28,02,30,13.30
2018,09,28,02,31,13.30
2018,09,28,02,32,13.30
2018,09,28,02,33,13.30
2018,09,28,02,34,13.30
2018,09,28,02,35,13.30
2018,09,28,02,36,13.20
2018,09,28,02,37,13.20
2018,09,28,02,38,13.10
2018,09,28,02,39,13.10
2018,09,28,02,40,13.00
2018,09,28,02,41,13.00
2018,09,28,02,42,12.90
2018,09,28,02,43,12.90
2018,09,28,02,44,12.90
2018,09,28,02,45,12.90
2018,09,28,02,46,12.80
2018,09,28,02,47,12.80
2018,09,28,02,48,12.80
2018,09,28,02,49,12.80
2018,09,28,02,50,12.80
2018,09,28,02,51,12.80
2018,09,28,02,52,12.80
2018,09,28,02,53,12.80
2018,09,28,02,54,12.80
2018,09,28,02,55,12.80
2018,09,28,02,56,12.80
2018,09,28,02,57,12.90
2018,09,28,02,58,12.90
2018,09,28,02,59,12.90
2018,09,28,03,00,12.90
2018,09,28,03,01,13.00
2018,09,28,03,02,12.90
2018,09,28,03,06,12.90
2018,09,28,03,07,12.90
2018,09,28,03,08,12.80
2018,09,28,03,09,12.80
2018,09,28,03,10,12.80
2018,09,28,03,11,12.80
2018,09,28,03,12,12.70
2018,09,28,03,13,12.70
2018,09,28,03,14,12.70
2018,09,28,03,15,12.60
2018,09,28,03,16,12.60
2018,09,28,03,17,12.60
2018,09,28,03,18,12.60
2018,09,28,03,19,12.60
2018,09,28,03,20,12.60
2018,09,28,03,21,12.60
2018,09,28,03,22,12.50
2018,09,28,03,23,12.50
2018,09,28,03,24,12.40
2018,09,28,03,25,12.40
2018,09,28,03,26,12.40
2018,09,28,03,27,12.40
2018,09,28,03,28,12.40
2018,09,28,03,29,12.40
2018,09,28,03,30,12.40
2018,09,28,03,31,12.40
2018,09,28,03,32,12.40
2018,09,28,03,33,12.40
2018,09,28,03,34,12.40
2018,09,28,03,35,12.40
2018,09,28,03,36,12.40
2018,09,28,03,37,12.40
2018,09,28,03,38,12.40
2018,09,28,03,39,12.40
2018,09,28,03,40,12.40
2018,09,28,03,41,12.40
2018,09,28,03,42,12.30
2018,09,28,03,43,12.30
2018,09,28,03,44,12.30
2018,09,28,03,45,12.30
2018,09,28,03,46,12.30
2018,09,28,03,47,12.20
2018,09,28,03,48,12.20
2018,09,28,03,49,12.20
2018,09,28,03,50,12.20
2018,09,28,03,51,12.20
2018,09,28,03,52,12.10
2018,09,28,03,53,12.10
2018,09,28,03,54,12.10
2018,09,28,03,55,12.10
2018,09,28,03,56,12.10
2018,09,28,03,57,12.10
2018,09,28,03,58,12.20
2018,09,28,03,59,12.20
2018,09,28,04,00,12.30
2018,09,28,04,01,12.40
2018,09,28,04,02,12.50
2018,09,28,04,03,12.50
2018,09,28,04,04,12.60
2018,09,28,04,05,12.70
2018,09,28,04,06,12.70
2018,09,28,04,07,12.80
2018,09,28,04,08,12.90
2018,09,28,04,09,13.00
2018,09,28,04,10,13.00
2018,09,28,04,11,13.10
2018,09,28,04,12,13.10
2018,09,28,04,13,13.20
2018,09,28,04,14,13.20
2018,09,28,04,15,13.20
2018,09,28,04,16,13.20
2018,09,28,04,17,13.20
2018,09,28,04,18,13.20
2018,09,28,04,19,13.20
2018,09,28,04,20,13.20
2018,09,28,04,21,13.20
2018,09,28,04,22,13.30
2018,09,28,04,23,13.30
2018,09,28,04,24,13.30
2018,09,28,04,25,13.30
2018,09,28,04,26,13.20
2018,09,28,04,27,13.20
2018,09,28,04,28,13.20
2018,09,28,04,29,13.10
2018,09,28,04,30,13.00
2018,09,28,04,31,12.90
2018,09,28,04,32,12.90
2018,09,28,04,33,12.80
2018,09,28,04,34,12.70
2018,09,28,04,35,12.70
2018,09,28,04,36,12.60
2018,09,28,04,37,12.50
2018,09,28,04,38,12.50
2018,09,28,04,39,12.50
2018,09,28,04,40,12.50
2018,09,28,04,41,12.50
2018,09,28,04,42,12.50
2018,09,28,04,43,12.50
2018,09,28,04,44,12.50
2018,09,28,04,45,12.40
2018,09,28,04,46,12.40
2018,09,28,04,47,12.40
2018,09,28,04,48,12.30
2018,09,28,04,49,12.30
2018,09,28,04,50,12.30
2018,09,28,04,51,12.30
2018,09,28,04,52,12.20
2018,09,28,04,53,12.20
2018,09,28,04,54,12.10
2018,09,28,04,55,12.10
2018,09,28,04,56,12.10
2018,09,28,04,57,12.10
2018,09,28,04,58,12.00
2018,09,28,04,59,12.00
2018,09,28,05,00,12.00
2018,09,28,05,01,11.90
2018,09,28,05,02,11.90
2018,09,28,05,03,11.90
2018,09,28,05,04,11.90
2018,09,28,05,05,11.80
2018,09,28,05,06,11.90
2018,09,28,05,07,11.90
2018,09,28,05,08,11.90
2018,09,28,05,09,11.90
2018,09,28,05,10,11.90
2018,09,28,05,11,11.90
2018,09,28,05,12,11.90
2018,09,28,05,13,11.90
2018,09,28,05,14,11.80
2018,09,28,05,15,11.80
2018,09,28,05,16,11.80
2018,09,28,05,17,11.80
2018,09,28,05,18,11.80
2018,09,28,05,19,11.80
2018,09,28,05,20,11.70
2018,09,28,05,21,11.70
2018,09,28,05,22,11.70
2018,09,28,05,23,11.70
2018,09,28,05,24,11.70
2018,09,28,05,25,11.70
2018,09,28,05,26,11.70
2018,09,28,05,27,11.70
2018,09,28,05,28,11.70
2018,09,28,05,29,11.70
2018,09,28,05,30,11.70
2018,09,28,05,31,11.70
2018,09,28,05,32,11.70
2018,09,28,05,33,11.70
2018,09,28,05,34,11.70
2018,09,28,05,35,11.70
2018,09,28,05,36,11.70
2018,09,28,05,37,11.60
2018,09,28,05,38,11.60
2018,09,28,05,39,11.60
2018,09,28,05,40,11.60
2018,09,28,05,41,11.60
2018,09,28,05,42,11.60
2018,09,28,05,43,11.50
2018,09,28,05,44,11.50
2018,09,28,05,45,11.50
2018,09,28,05,46,11.50
2018,09,28,05,47,11.50
2018,09,28,05,48,11.40
2018,09,28,05,49,11.40
2018,09,28,05,50,11.40
2018,09,28,05,51,11.40
2018,09,28,05,52,11.40
2018,09,28,05,53,11.30
2018,09,28,05,54,11.30
2018,09,28,05,55,11.30
2018,09,28,05,56,11.30
2018,09,28,05,57,11.30
2018,09,28,05,58,11.30
2018,09,28,05,59,11.30
2018,09,28,06,00,11.30
2018,09,28,06,01,11.30
2018,09,28,06,02,11.30
2018,09,28,06,03,11.30
2018,09,28,06,04,11.30
2018,09,28,06,05,11.30
2018,09,28,06,06,11.30
2018,09,28,06,07,11.30
2018,09,28,06,08,11.30
2018,09,28,06,09,11.30
2018,09,28,06,10,11.30
2018,09,28,06,11,11.20
2018,09,28,06,12,11.20
2018,09,28,06,13,11.20
2018,09,28,06,14,11.20
2018,09,28,06,15,11.20
2018,09,28,06,16,11.20
2018,09,28,06,17,11.20
2018,09,28,06,18,11.20
2018,09,28,06,19,11.20
2018,09,28,06,20,11.20
2018,09,28,06,21,11.20
2018,09,28,06,22,11.20
2018,09,28,06,23,11.20
2018,09,28,06,24,11.20
2018,09,28,06,25,11.20
2018,09,28,06,26,11.20
2018,09,28,06,27,11.10
2018,09,28,06,28,11.10
2018,09,28,06,29,11.10
2018,09,28,06,30,11.10
2018,09,28,06,31,11.10
2018,09,28,06,32,11.10
2018,09,28,06,33,11.10
2018,09,28,06,34,11.10
2018,09,28,06,35,11.10
2018,09,28,06,36,11.00
2018,09,28,06,37,11.00
2018,09,28,06,38,11.00
2018,09,28,06,39,11.00
2018,09,28,06,40,11.00
2018,09,28,06,41,10.90
2018,09,28,06,42,10.90
2018,09,28,06,43,10.90
2018,09,28,06,44,10.90
2018,09,28,06,45,10.90
2018,09,28,06,46,10.90
2018,09,28,06,47,10.90
2018,09,28,06,48,10.90
2018,09,28,06,49,10.90
2018,09,28,06,50,10.90
2018,09,28,06,51,10.90
2018,09,28,06,52,10.90
2018,09,28,06,53,10.90
2018,09,28,06,54,10.90
2018,09,28,06,55,10.90
2018,09,28,06,56,10.90
2018,09,28,06,57,10.90
2018,09,28,06,58,10.90
2018,09,28,06,59,10.90
2018,09,28,07,00,10.80
2018,09,28,07,01,10.80
2018,09,28,07,02,10.80
2018,09,28,07,03,10.80
2018,09,28,07,04,10.80
2018,09,28,07,05,10.80
2018,09,28,07,06,10.80
2018,09,28,07,07,10.80
2018,09,28,07,08,10.80
2018,09,28,07,09,10.80
2018,09,28,07,10,10.80
2018,09,28,07,11,10.80
2018,09,28,07,12,10.80
2018,09,28,07,13,10.80
2018,09,28,07,14,10.80
2018,09,28,07,15,10.80
2018,09,28,07,16,10.80
2018,09,28,07,17,10.80
2018,09,28,07,18,10.80
2018,09,28,07,19,10.80
2018,09,28,07,20,10.70
2018,09,28,07,21,10.70
2018,09,28,07,22,10.70
2018,09,28,07,23,10.70
2018,09,28,07,24,10.70
2018,09,28,07,25,10.70
2018,09,28,07,26,10.70
2018,09,28,07,27,10.70
2018,09,28,07,28,10.70
2018,09,28,07,29,10.70
2018,09,28,07,30,10.70
2018,09,28,07,31,10.70
2018,09,28,07,32,10.70
2018,09,28,07,33,10.70
2018,09,28,07,34,10.70
2018,09,28,07,35,10.70
2018,09,28,07,36,10.80
2018,09,28,07,37,10.80
2018,09,28,07,38,10.80
2018,09,28,07,39,10.80
2018,09,28,07,40,10.80
2018,09,28,07,41,10.80
2018,09,28,07,42,10.80
2018,09,28,07,43,10.80
2018,09,28,07,44,10.80
2018,09,28,07,45,10.80
2018,09,28,07,46,10.80
2018,09,28,07,47,10.90
2018,09,28,07,48,10.90
2018,09,28,07,49,10.90
2018,09,28,07,50,10.90
2018,09,28,07,51,10.90
2018,09,28,07,52,11.00
2018,09,28,07,53,11.00
2018,09,28,07,54,11.00
2018,09,28,07,55,11.10
2018,09,28,07,56,11.10
2018,09,28,07,57,11.20
2018,09,28,07,58,11.20
2018,09,28,07,59,11.30
2018,09,28,08,00,11.40
2018,09,28,08,01,11.50
2018,09,28,08,02,11.70
2018,09,28,08,03,11.80
2018,09,28,08,04,11.90
2018,09,28,08,05,12.00
2018,09,28,08,06,12.10
2018,09,28,08,07,12.20
2018,09,28,08,08,12.30
2018,09,28,08,09,12.30
2018,09,28,08,10,12.40
2018,09,28,08,11,12.50
2018,09,28,08,12,12.60
2018,09,28,08,13,12.60
2018,09,28,08,14,12.70
2018,09,28,08,15,12.80
2018,09,28,08,16,12.80
2018,09,28,08,17,12.90
2018,09,28,08,18,13.00
2018,09,28,08,19,13.00
2018,09,28,08,20,13.10
2018,09,28,08,21,13.20
2018,09,28,08,22,13.20
2018,09,28,08,23,13.30
2018,09,28,08,24,13.30
2018,09,28,08,25,13.40
2018,09,28,08,26,13.40
2018,09,28,08,27,13.50
2018,09,28,08,28,13.50
2018,09,28,08,29,13.60
2018,09,28,08,30,13.60
2018,09,28,08,31,13.60
2018,09,28,08,32,13.70
2018,09,28,08,33,13.70
2018,09,28,08,34,13.80
2018,09,28,08,35,13.80
2018,09,28,08,36,13.80
2018,09,28,08,37,13.90
2018,09,28,08,38,13.90
2018,09,28,08,39,14.00
2018,09,28,08,40,14.10
2018,09,28,08,41,14.10
2018,09,28,08,42,14.20
2018,09,28,08,43,14.20
2018,09,28,08,44,14.30
2018,09,28,08,45,14.30
2018,09,28,08,46,14.40
2018,09,28,08,47,14.40
2018,09,28,08,48,14.50
2018,09,28,08,49,14.50
2018,09,28,08,50,14.60
2018,09,28,08,51,14.60
2018,09,28,08,52,14.60
2018,09,28,08,53,14.70
2018,09,28,08,54,14.70
2018,09,28,08,55,14.70
2018,09,28,08,56,14.80
2018,09,28,08,57,14.80
2018,09,28,08,58,14.80
2018,09,28,08,59,14.90
2018,09,28,09,00,14.90
2018,09,28,09,01,14.90
2018,09,28,09,02,15.00
2018,09,28,09,03,15.00
2018,09,28,09,04,15.00
2018,09,28,09,05,15.10
2018,09,28,09,06,15.10
2018,09,28,09,07,15.10
2018,09,28,09,08,15.10
2018,09,28,09,09,15.10
2018,09,28,09,10,15.10
2018,09,28,09,11,15.10
2018,09,28,09,12,15.20
2018,09,28,09,13,15.20
2018,09,28,09,14,15.20
2018,09,28,09,15,15.20
2018,09,28,09,16,15.30
2018,09,28,09,17,15.30
2018,09,28,09,18,15.30
2018,09,28,09,19,15.40
2018,09,28,09,20,15.40
2018,09,28,09,21,15.40
2018,09,28,09,22,15.50
2018,09,28,09,23,15.50
2018,09,28,09,24,15.60
2018,09,28,09,25,15.60
2018,09,28,09,26,15.70
2018,09,28,09,27,15.70
2018,09,28,09,28,15.70
2018,09,28,09,29,15.80
2018,09,28,09,30,15.80
2018,09,28,09,31,15.90
2018,09,28,09,32,15.90
2018,09,28,09,33,15.90
2018,09,28,09,34,15.90
2018,09,28,09,35,16.00
2018,09,28,09,36,16.00
2018,09,28,09,37,16.10
2018,09,28,09,38,16.10
2018,09,28,09,39,16.10
2018,09,28,09,40,16.10
2018,09,28,09,41,16.20
2018,09,28,09,42,16.20
2018,09,28,09,43,16.20
2018,09,28,09,44,16.20
2018,09,28,09,45,16.30
2018,09,28,09,46,16.30
2018,09,28,09,47,16.30
2018,09,28,09,48,16.40
2018,09,28,09,49,16.40
2018,09,28,09,50,16.40
2018,09,28,09,51,16.50
2018,09,28,09,52,16.50
2018,09,28,09,53,16.60
2018,09,28,09,54,16.60
2018,09,28,09,55,16.70
2018,09,28,09,56,16.70
2018,09,28,09,57,16.70
2018,09,28,09,58,16.80
2018,09,28,09,59,16.80
2018,09,28,10,00,16.80
2018,09,28,10,01,16.80
2018,09,28,10,02,16.80
2018,09,28,10,03,16.90
2018,09,28,10,04,16.90
2018,09,28,10,05,16.90
2018,09,28,10,06,17.00
2018,09,28,10,07,17.00
2018,09,28,10,08,17.10
2018,09,28,10,09,17.10
2018,09,28,10,10,17.10
2018,09,28,10,11,17.10
2018,09,28,10,12,17.20
2018,09,28,10,13,17.20
2018,09,28,10,14,17.20
2018,09,28,10,15,17.30
2018,09,28,10,16,17.30
2018,09,28,10,17,17.40
2018,09,28,10,18,17.40
2018,09,28,10,19,17.50
2018,09,28,10,20,17.50
2018,09,28,10,21,17.60
2018,09,28,10,22,17.60
2018,09,28,10,23,17.60
2018,09,28,10,24,17.60
2018,09,28,10,25,17.70
2018,09,28,10,26,17.70
2018,09,28,10,27,17.70
2018,09,28,10,28,17.80
2018,09,28,10,29,17.80
2018,09,28,10,30,17.80
2018,09,28,10,31,17.80
2018,09,28,10,32,17.90
2018,09,28,10,33,17.90
2018,09,28,10,34,18.00
2018,09,28,10,35,18.00
2018,09,28,10,36,18.00
2018,09,28,10,37,18.10
2018,09,28,10,38,18.10
2018,09,28,10,39,18.20
2018,09,28,10,40,18.20
2018,09,28,10,41,18.30
2018,09,28,10,42,18.30
2018,09,28,10,43,18.30
2018,09,28,10,44,18.30
2018,09,28,10,45,18.40
2018,09,28,10,46,18.40
2018,09,28,10,47,18.40
2018,09,28,10,48,18.40
2018,09,28,10,49,18.50
2018,09,28,10,50,18.50
2018,09,28,10,51,18.50
2018,09,28,10,52,18.50
2018,09,28,10,53,18.60
2018,09,28,10,54,18.60
2018,09,28,10,55,18.70
2018,09,28,10,56,18.70
2018,09,28,10,57,18.70
2018,09,28,10,58,18.70
2018,09,28,10,59,18.80
2018,09,28,11,00,18.80
2018,09,28,11,01,18.80
2018,09,28,11,02,18.90
2018,09,28,11,03,18.90
2018,09,28,11,04,18.90
2018,09,28,11,05,19.00
2018,09,28,11,06,19.00
2018,09,28,11,07,19.10
2018,09,28,11,08,19.10
2018,09,28,11,09,19.20
2018,09,28,11,10,19.20
2018,09,28,11,11,19.20
2018,09,28,11,12,19.20
2018,09,28,11,13,19.20
2018,09,28,11,14,19.30
2018,09,28,11,15,19.30
2018,09,28,11,16,19.30
2018,09,28,11,17,19.30
2018,09,28,11,18,19.30
2018,09,28,11,19,19.30
2018,09,28,11,20,19.40
2018,09,28,11,21,19.40
2018,09,28,11,22,19.40
2018,09,28,11,23,19.40
2018,09,28,11,24,19.40
2018,09,28,11,25,19.40
2018,09,28,11,26,19.50
2018,09,28,11,27,19.50
2018,09,28,11,28,19.50
2018,09,28,11,29,19.60
2018,09,28,11,30,19.70
2018,09,28,11,31,19.70
2018,09,28,11,32,19.80
2018,09,28,11,33,19.80
2018,09,28,11,34,19.90
2018,09,28,11,35,20.00
2018,09,28,11,36,20.00
2018,09,28,11,37,20.10
2018,09,28,11,38,20.10
2018,09,28,11,39,20.10
2018,09,28,11,40,20.10
2018,09,28,11,41,20.20
2018,09,28,11,42,20.20
2018,09,28,11,43,20.20
2018,09,28,11,44,20.30
2018,09,28,11,45,20.30
2018,09,28,11,46,20.40
2018,09,28,11,47,20.40
2018,09,28,11,48,20.50
2018,09,28,11,49,20.60
2018,09,28,11,50,20.60
2018,09,28,11,51,20.70
2018,09,28,11,52,20.70
2018,09,28,11,53,20.80
2018,09,28,11,54,20.80
2018,09,28,11,55,20.80
2018,09,28,11,56,20.80
2018,09,28,11,57,20.80
2018,09,28,11,58,20.80
2018,09,28,11,59,20.80
2018,09,28,12,00,20.80
2018,09,28,12,01,20.80
2018,09,28,12,02,20.70
2018,09,28,12,03,20.70
2018,09,28,12,04,20.80
2018,09,28,12,05,20.80
2018,09,28,12,06,20.90
2018,09,28,12,07,20.90
2018,09,28,12,08,20.90
2018,09,28,12,09,21.00
2018,09,28,12,10,21.00
2018,09,28,12,11,21.00
2018,09,28,12,12,21.10
2018,09,28,12,13,21.10
2018,09,28,12,14,21.10
2018,09,28,12,15,21.20
2018,09,28,12,16,21.20
2018,09,28,12,17,21.20
2018,09,28,12,18,21.20
2018,09,28,12,19,21.30
2018,09,28,12,20,21.30
2018,09,28,12,21,21.30
2018,09,28,12,22,21.30
2018,09,28,12,23,21.30
2018,09,28,12,24,21.30
2018,09,28,12,25,21.30
2018,09,28,12,26,21.40
2018,09,28,12,27,21.40
2018,09,28,12,28,21.40
2018,09,28,12,29,21.40
2018,09,28,12,30,21.50
2018,09,28,12,31,21.50
2018,09,28,12,32,21.60
2018,09,28,12,33,21.50
2018,09,28,12,34,21.50
2018,09,28,12,35,21.50
2018,09,28,12,36,21.50
2018,09,28,12,37,21.50
2018,09,28,12,38,21.60
2018,09,28,12,39,21.60
2018,09,28,12,40,21.60
2018,09,28,12,41,21.60
2018,09,28,12,42,21.60
2018,09,28,12,43,21.60
2018,09,28,12,44,21.60
2018,09,28,12,45,21.60
2018,09,28,12,46,21.60
2018,09,28,12,47,21.60
2018,09,28,12,48,21.50
2018,09,28,12,49,21.50
2018,09,28,12,50,21.50
2018,09,28,12,51,21.50
2018,09,28,12,52,21.50
2018,09,28,12,53,21.60
2018,09,28,12,54,21.60
2018,09,28,12,55,21.60
2018,09,28,12,56,21.70
2018,09,28,12,57,21.70
2018,09,28,12,58,21.70
2018,09,28,12,59,21.80
2018,09,28,13,00,21.80
2018,09,28,13,01,21.80
2018,09,28,13,02,21.80
2018,09,28,13,03,21.80
2018,09,28,13,04,21.80
2018,09,28,13,05,21.90
2018,09,28,13,06,21.90
2018,09,28,13,07,21.90
2018,09,28,13,08,21.90
2018,09,28,13,09,21.90
2018,09,28,13,10,22.00
2018,09,28,13,11,22.00
2018,09,28,13,12,22.10
2018,09,28,13,13,22.10
2018,09,28,13,14,22.10
2018,09,28,13,15,22.10
2018,09,28,13,16,22.10
2018,09,28,13,17,22.10
2018,09,28,13,18,22.00
2018,09,28,13,19,22.00
2018,09,28,13,20,22.00
2018,09,28,13,21,22.00
2018,09,28,13,22,22.10
2018,09,28,13,23,22.10
2018,09,28,13,24,22.10
2018,09,28,13,25,22.20
2018,09,28,13,26,22.30
2018,09,28,13,27,22.30
2018,09,28,13,28,22.30
2018,09,28,13,29,22.30
2018,09,28,13,30,22.40
2018,09,28,13,31,22.40
2018,09,28,13,32,22.40
2018,09,28,13,33,22.40
2018,09,28,13,34,22.40
2018,09,28,13,35,22.40
2018,09,28,13,36,22.40
2018,09,28,13,37,22.50
2018,09,28,13,38,22.50
2018,09,28,13,39,22.50
2018,09,28,13,40,22.50
2018,09,28,13,41,22.50
2018,09,28,13,42,22.50
2018,09,28,13,43,22.40
2018,09,28,13,44,22.40
2018,09,28,13,45,22.50
2018,09,28,13,46,22.50
2018,09,28,13,47,22.60
2018,09,28,13,48,22.60
2018,09,28,13,49,22.70
2018,09,28,13,50,22.60
2018,09,28,13,51,22.60
2018,09,28,13,52,22.70
2018,09,28,13,53,22.70
2018,09,28,13,54,22.70
2018,09,28,13,55,22.80
2018,09,28,13,56,22.90
2018,09,28,13,57,23.00
2018,09,28,13,58,23.10
2018,09,28,13,59,23.20
2018,09,28,14,00,23.30
2018,09,28,14,01,23.40
2018,09,28,14,02,23.50
2018,09,28,14,03,23.60
2018,09,28,14,04,23.60
2018,09,28,14,05,23.60
2018,09,28,14,06,23.60
2018,09,28,14,07,23.60
2018,09,28,14,08,23.70
2018,09,28,14,09,23.70
2018,09,28,14,10,23.80
2018,09,28,14,11,23.80
2018,09,28,14,12,23.80
2018,09,28,14,13,23.90
2018,09,28,14,14,23.90
2018,09,28,14,15,24.00
2018,09,28,14,16,24.10
2018,09,28,14,17,24.10
2018,09,28,14,18,24.20
2018,09,28,14,19,24.30
2018,09,28,14,20,24.30
2018,09,28,14,21,24.40
2018,09,28,14,22,24.40
2018,09,28,14,23,24.50
2018,09,28,14,24,24.50
2018,09,28,14,25,24.60
2018,09,28,14,26,24.60
2018,09,28,14,27,24.70
2018,09,28,14,28,24.60
2018,09,28,14,29,24.60
2018,09,28,14,30,24.50
2018,09,28,14,31,24.40
2018,09,28,14,32,24.40
2018,09,28,14,33,24.40
2018,09,28,14,34,24.40
2018,09,28,14,35,24.40
2018,09,28,14,36,24.40
2018,09,28,14,37,24.40
2018,09,28,14,38,24.40
2018,09,28,14,39,24.40
2018,09,28,14,40,24.40
2018,09,28,14,41,24.40
2018,09,28,14,42,24.40
2018,09,28,14,43,24.40
2018,09,28,14,44,24.50
2018,09,28,14,45,24.50
2018,09,28,14,46,24.60
2018,09,28,14,47,24.60
2018,09,28,14,48,24.70
2018,09,28,14,49,24.70
2018,09,28,14,50,24.70
2018,09,28,14,51,24.70
2018,09,28,14,52,24.70
2018,09,28,14,53,24.70
2018,09,28,14,54,24.70
2018,09,28,14,55,24.70
2018,09,28,14,56,24.70
2018,09,28,14,57,24.70
2018,09,28,14,58,24.60
2018,09,28,14,59,24.60
2018,09,28,15,00,24.60
2018,09,28,15,01,24.60
2018,09,28,15,02,24.60
2018,09,28,15,03,24.60
2018,09,28,15,04,24.60
2018,09,28,15,05,24.60
2018,09,28,15,06,24.60
2018,09,28,15,07,24.60
2018,09,28,15,08,24.50
2018,09,28,15,09,24.50
2018,09,28,15,10,24.40
2018,09,28,15,11,24.30
2018,09,28,15,12,24.30
2018,09,28,15,13,24.20
2018,09,28,15,14,24.10
2018,09,28,15,15,24.00
2018,09,28,15,16,24.00
2018,09,28,15,17,23.90
2018,09,28,15,18,23.80
2018,09,28,15,19,23.80
2018,09,28,15,20,23.70
2018,09,28,15,21,23.70
2018,09,28,15,22,23.70
2018,09,28,15,23,23.60
2018,09,28,15,24,23.60
2018,09,28,15,25,23.60
2018,09,28,15,26,23.60
2018,09,28,15,27,23.50
2018,09,28,15,28,23.40
2018,09,28,15,29,23.40
2018,09,28,15,30,23.30
2018,09,28,15,31,23.30
2018,09,28,15,32,23.30
2018,09,28,15,33,23.30
2018,09,28,15,34,23.30
2018,09,28,15,35,23.30
2018,09,28,15,36,23.30
2018,09,28,15,37,23.30
2018,09,28,15,38,23.30
2018,09,28,15,39,23.30
2018,09,28,15,40,23.20
2018,09,28,15,41,23.20
2018,09,28,15,42,23.20
2018,09,28,15,43,23.20
2018,09,28,15,44,23.20
2018,09,28,15,45,23.20
2018,09,28,15,46,23.20
2018,09,28,15,47,23.30
2018,09,28,15,48,23.30
2018,09,28,15,49,23.30
2018,09,28,15,50,23.30
2018,09,28,15,51,23.30
2018,09,28,15,52,23.30
2018,09,28,15,53,23.30
2018,09,28,15,54,23.30
2018,09,28,15,55,23.30
2018,09,28,15,56,23.40
2018,09,28,15,57,23.40
2018,09,28,15,58,23.40
2018,09,28,15,59,23.40
2018,09,28,16,00,23.40
2018,09,28,16,01,23.30
2018,09,28,16,02,23.30
2018,09,28,16,03,23.30
2018,09,28,16,04,23.30
2018,09,28,16,05,23.30
2018,09,28,16,06,23.30
2018,09,28,16,07,23.30
2018,09,28,16,08,23.40
2018,09,28,16,09,23.40
2018,09,28,16,10,23.40
2018,09,28,16,11,23.40
2018,09,28,16,12,23.40
2018,09,28,16,13,23.40
2018,09,28,16,14,23.40
2018,09,28,16,15,23.40
2018,09,28,16,16,23.40
2018,09,28,16,17,23.40
2018,09,28,16,18,23.40
2018,09,28,16,19,23.40
2018,09,28,16,20,23.40
2018,09,28,16,21,23.40
2018,09,28,16,22,23.40
2018,09,28,16,23,23.40
2018,09,28,16,24,23.40
2018,09,28,16,25,23.40
2018,09,28,16,26,23.40
2018,09,28,16,27,23.40
2018,09,28,16,28,23.40
2018,09,28,16,29,23.50
2018,09,28,16,30,23.50
2018,09,28,16,31,23.50
2018,09,28,16,32,23.40
2018,09,28,16,33,23.40
2018,09,28,16,34,23.40
2018,09,28,16,35,23.40
2018,09,28,16,36,23.40
2018,09,28,16,37,23.40
2018,09,28,16,38,23.40
2018,09,28,16,39,23.40
2018,09,28,16,40,23.40
2018,09,28,16,41,23.30
2018,09,28,16,42,23.30
2018,09,28,16,43,23.30
2018,09,28,16,44,23.30
2018,09,28,16,45,23.30
2018,09,28,16,46,23.30
2018,09,28,16,47,23.30
2018,09,28,16,48,23.40
2018,09,28,16,49,23.40
2018,09,28,16,50,23.40
2018,09,28,16,51,23.40
2018,09,28,16,52,23.40
2018,09,28,16,53,23.50
2018,09,28,16,54,23.50
2018,09,28,16,55,23.50
2018,09,28,16,56,23.50
2018,09,28,16,57,23.50
2018,09,28,16,58,23.40
2018,09,28,16,59,23.40
2018,09,28,17,00,23.40
2018,09,28,17,01,23.30
2018,09,28,17,02,23.30
2018,09,28,17,03,23.20
2018,09,28,17,04,23.20
2018,09,28,17,05,23.10
2018,09,28,17,06,23.10
2018,09,28,17,07,23.00
2018,09,28,17,08,23.00
2018,09,28,17,09,22.90
2018,09,28,17,10,22.90
2018,09,28,17,11,22.80
2018,09,28,17,12,22.70
2018,09,28,17,13,22.70
2018,09,28,17,14,22.60
2018,09,28,17,15,22.60
2018,09,28,17,16,22.60
2018,09,28,17,17,22.60
2018,09,28,17,18,22.50
2018,09,28,17,19,22.50
2018,09,28,17,20,22.40
2018,09,28,17,21,22.40
2018,09,28,17,22,22.30